• Join FlightAware (Why Join?)
  • Login
  • US Flag 
09:07PM EDT


 

Airport Tracker/Info


-or-


 

Live Flight TrackerFlight Track Log ✈ N425CD ✈ 06-Jun-2014 ✈ KMIA - KFXE

Flight Track Log - Related Links

Times and Time Zones

All times are in EDT time to prevent confusion due to time zone crossing. See the N425CD flight status page for this flight to view local times or setup timezone preferences in your user account.

Time Position Orientation Groundspeed Altitude Reporting Facility
EDT Latitude Longitude Course Direction KTS MPH feet Rate Location/Type
11:43AM 25.8561 -79.2836 351° North 106 122 1,800  Level Miami Center
11:44AM 25.8789 -79.2875 351° North 118 136 2,100 360 Climbing Miami Center
11:45AM 25.9067 -79.3125 321° Northwest 124 143 2,500 240 Climbing Miami Center
11:46AM 25.9297 -79.3489 305° West 163 188 2,600  Climbing Miami Center
11:47AM 25.9506 -79.3872 301° West 148 170 2,600  Level Miami Center
11:48AM 25.9694 -79.4233 300° West 143 165 2,600  Level Miami Center
11:48AM 25.9714 -79.4256 314° West 144 166 2,600  Level Miami Center
11:49AM 25.9903 -79.4619 300° West 140 161 2,600  Level Miami Center
11:49AM 25.9922 -79.4631 333° Northwest 145 167 2,600  Level Miami Center
11:50AM 26.0131 -79.5028 300° West 145 167 2,600  Level Miami Center
11:51AM 26.0358 -79.5439 302° West 146 168 2,600  Level Miami Center
11:52AM 26.0525 -79.5844 295° West 145 167 2,600  Level Miami Center
11:53AM 26.0669 -79.6225 293° West 144 166 2,600  Level Miami Center
11:54AM 26.0833 -79.6633 294° West 145 167 2,600  Level Miami Center
11:55AM 26.0997 -79.7061 293° West 146 168 2,600  Level Miami Center
11:56AM 26.1158 -79.7514 292° West 146 168 2,600  Level Miami Center
11:57AM 26.1303 -79.7919 292° West 145 167 2,600 -60 Level Miami Center
11:58AM 26.1444 -79.8347 290° West 148 170 2,500 -120 Descending Miami Center
11:59AM 26.1581 -79.8867 286° West 151 174 2,400 -180 Descending Miami Center
12:00PM 26.1636 -79.9336 278° West 151 174 2,200 -360 Descending Miami Center
12:01PM 26.1692 -79.9803 278° West 157 181 1,700 -480 Descending Miami Center
12:02PM 26.1725 -80.0247 275° West 155 178 1,300 -360 Descending Miami Center
12:03PM 26.1781 -80.0739 277° West 145 167 1,100 -120 Descending Miami Center
12:04PM 26.1753 -80.1178 266° West 143 165 1,100 -60 Level Miami Center
12:05PM 26.1722 -80.1686 266° West 150 173 1,000  Descending Miami Center
12:06PM 26.1692 -80.2147 266° West 143 165 1,200  Climbing Miami Center
12:07PM 26.1728 -80.2569 275° West 135 155 1,100 -240 Descending Miami Center
12:08PM 26.1928 -80.2422 33° Northeast 144 166 800 -360 Descending Miami Center
12:09PM 26.1950 -80.2053 86° East 108 124 500 -300 Descending Miami Center
12:11PM 26.1973 -80.1707 109° East  Level Estimated
12:18PM 26.1973 -80.1707 283° West  Level Estimated